1505520000.9,11967,15.44,73692.8,1.09,-8.07,-5.19,0,*7F
1505520002.13,11968,15.44,73690.3,1.05,-8.17,-5.23,0,*74
1505520003.38,11969,15.44,73684.3,1.07,-8.17,-5.19,0,*7E
1505520004.64,11970,15.5,73686.3,1.07,-8.25,-5.11,0,*7F
1505520005.89,11971,15.44,73688.8,1.07,-8.41,-5.23,0,*7D
1505520007.18,11972,15.44,73682.0,1.07,-8.51,-5.23,0,*7F
1505520008.43,11973,15.44,73682.8,1.07,-8.75,-5.31,0,*7B
1505520009.66,11974,15.44,73682.8,1.07,-8.85,-5.39,0,*7B
1505520010.89,11975,15.44,73680.3,1.07,-8.93,-5.39,0,*7D
1505520012.12,11976,15.44,73676.0,1.07,-9.31,-5.47,0,*7E
1505520013.34,11977,15.44,73672.8,1.09,-9.31,-5.35,0,*74
1505520014.59,11978,15.44,73672.5,1.07,-9.45,-5.39,0,*7A
1505520015.83,11979,15.44,73664.5,1.05,-9.57,-5.23,0,*71
1505520017.1,11980,15.44,73668.0,1.07,-9.61,-5.19,0,*79
1505520018.38,11981,15.44,73668.0,1.07,-9.61,-5.07,0,*77
1505520019.62,11982,15.44,73670.0,1.07,-9.67,-4.93,0,*7E
1505520020.84,11983,15.44,73670.3,1.05,-9.67,-4.81,0,*7E
1505520022.09,11984,15.44,73674.5,1.07,-9.61,-4.57,0,*76
1505520023.34,11985,15.44,73678.0,1.07,-9.49,-4.33,0,*7F
1505520024.56,11986,15.44,73678.3,1.07,-9.31,-4.09,0,*7A
1505520025.78,11987,15.44,73682.8,1.09,-9.01,-3.79,0,*76
1505520027.03,11988,15.44,73684.5,1.09,-8.93,-3.67,0,*7C
1505520028.26,11989,15.44,73682.3,1.09,-8.75,-3.47,0,*77
1505520029.45,11990,15.44,73684.8,1.11,-8.59,-3.31,0,*79
1505520030.67,11991,15.44,73680.3,1.09,-8.45,-3.23,0,*7F
1505520031.88,11992,15.44,73684.3,1.09,-8.25,-3.11,0,*7B
1505520033.13,11993,15.5,73680.0,1.09,-7.99,-2.99,0,*73
1505520034.38,11994,15.44,73678.5,1.09,-7.87,-2.75,0,*79
1505520035.65,11995,15.44,73674.5,1.07,-7.61,-2.67,0,*7D
1505520036.93,11996,15.44,73678.0,1.07,-7.43,-2.55,0,*7F
1505520038.19,11997,15.5,73680.8,1.07,-7.19,-2.51,0,*75
1505520039.44,11998,15.5,73682.3,1.07,-6.93,-2.39,0,*77
1505520040.67,11999,15.44,73678.0,1.07,-6.81,-2.27,0,*7A
1505520041.88,12000,15.44,73682.3,1.09,-6.47,-2.15,0,*75
1505520043.1,12001,15.44,73678.3,1.09,-6.39,-2.15,0,*7D
1505520044.37,12002,15.44,73678.5,1.09,-6.27,-1.99,0,*76
1505520045.62,12003,15.44,73680.0,1.09,-6.09,-1.99,0,*7B
1505520046.87,12004,15.5,73680.8,1.11,-5.89,-1.91,0,*76
1505520048.14,12005,15.44,73682.5,1.09,-5.81,-1.99,0,*7E
1505520049.42,12006,15.44,73682.8,1.09,-5.61,-1.99,0,*73
1505520050.68,12007,15.44,73686.0,1.09,-5.61,-2.11,0,*71
1505520051.93,12008,15.44,73678.8,1.09,-5.47,-2.11,0,*7A
1505520053.17,12009,15.44,73674.3,1.09,-5.43,-1.99,0,*7C
1505520054.45,12010,15.44,73676.5,1.09,-5.31,-2.11,0,*72
1505520055.72,12011,15.44,73680.8,1.09,-5.27,-1.99,0,*77
1505520056.97,12012,15.44,73680.8,1.09,-5.31,-2.15,0,*74
1505520058.22,12013,15.44,73680.8,1.09,-5.31,-2.23,0,*70
1505520059.43,12014,15.44,73686.8,1.09,-5.35,-2.27,0,*77
1505520060.66,12015,15.44,73682.8,1.11,-5.31,-2.31,0,*7C
1505520061.88,12016,15.44,73682.5,1.09,-5.35,-2.35,0,*76
1505520063.13,12017,15.44,73684.0,1.09,-5.47,-2.51,0,*70
1505520064.38,12018,15.44,73684.0,1.09,-5.55,-2.59,0,*74
1505520065.62,12019,15.44,73678.8,1.09,-5.47,-2.59,0,*76
1505520066.87,12020,15.44,73686.0,1.09,-5.55,-2.63,0,*76
1505520068.14,12021,15.44,73692.0,1.09,-5.61,-2.63,0,*70
1505520069.41,12022,15.44,73690.8,1.09,-5.61,-2.75,0,*74
1505520070.68,12023,15.44,73684.8,1.09,-5.61,-2.75,0,*75
1505520071.88,12024,15.5,73692.0,1.11,-5.55,-2.79,0,*70
1505520073.08,12025,15.44,73688.5,1.11,-5.55,-2.79,0,*71
1505520074.32,12026,15.44,73690.3,1.09,-5.61,-2.91,0,*7A
1505520075.55,12027,15.44,73688.8,1.09,-5.61,-2.91,0,*7B
1505520076.8,12028,15.5,73686.8,1.09,-5.61,-2.99,0,*7C
1505520078.04,12029,15.44,73686.5,1.09,-5.69,-2.99,0,*75
1505520079.29,12030,15.44,73686.5,1.09,-5.69,-2.99,0,*7D
1505520080.53,12031,15.44,73686.3,1.09,-5.61,-2.91,0,*7C
1505520081.73,12032,15.44,73684.0,1.11,-5.55,-2.87,0,*76
1505520082.97,12033,15.5,73690.5,1.09,-5.61,-2.91,0,*7E
1505520084.19,12034,15.44,73688.5,1.09,-5.55,-2.87,0,*79
1505520085.43,12035,15.44,73684.8,1.09,-5.61,-2.91,0,*78
1505520086.67,12036,15.44,73682.0,1.09,-5.61,-2.87,0,*7C
1505520087.89,12037,15.44,73680.8,1.11,-5.69,-2.95,0,*7F
1505520089.11,12038,15.44,73676.3,1.11,-5.69,-2.87,0,*73
1505520090.35,12039,15.44,73676.3,1.09,-5.73,-2.99,0,*7F
1505520091.6,12040,15.44,73676.5,1.09,-5.81,-2.95,0,*70
1505520092.85,12041,15.44,73678.8,1.09,-5.81,-2.87,0,*72
1505520094.12,12042,15.5,73682.5,1.09,-5.85,-2.75,0,*78
1505520095.4,12043,15.44,73682.0,1.09,-5.85,-2.75,0,*79
1505520096.68,12044,15.44,73678.8,1.09,-5.85,-2.71,0,*7A
1505520097.95,12045,15.44,73682.3,1.09,-5.81,-2.63,0,*7C
1505520099.22,12046,15.44,73686.8,1.09,-5.81,-2.59,0,*76
1505520100.49,12047,15.44,73686.5,1.09,-5.81,-2.47,0,*78
1505520101.74,12048,15.44,73694.8,1.09,-5.69,-2.35,0,*74
1505520102.97,12049,15.44,73690.5,1.09,-5.55,-2.23,0,*7D
1505520104.19,12050,15.44,73686.0,1.07,-5.47,-2.19,0,*71
1505520105.44,12051,15.44,73678.0,1.07,-5.39,-1.91,0,*7A
1505520106.72,12052,15.5,73678.8,1.07,-5.19,-1.87,0,*7C
1505520107.94,12053,15.44,73680.8,1.11,-4.89,-1.79,0,*73
1505520109.17,12054,15.44,73676.8,1.09,-4.77,-1.63,0,*77
1505520110.36,12055,15.44,73674.3,1.11,-4.53,-1.55,0,*7C
1505520111.58,12056,15.44,73652.5,1.09,-4.49,-1.51,0,*79
1505520112.8,12057,15.44,73672.3,1.11,-4.25,-1.47,0,*7C
1505520114.03,12058,15.44,73670.8,1.11,-4.21,-1.47,0,*77
1505520115.28,12059,15.44,73666.0,1.09,-3.87,-1.35,0,*71
1505520116.52,12060,15.44,73662.3,1.11,-3.71,-1.43,0,*7A
1505520117.77,12061,15.5,73664.0,1.11,-3.55,-1.43,0,*7D
1505520119.02,12062,15.44,73660.5,1.09,-3.51,-1.51,0,*70
1505520120.24,12063,15.44,73666.0,1.11,-3.55,-1.71,0,*7E
1505520121.49,12064,15.44,73676.3,1.11,-3.63,-1.83,0,*71
1505520122.74,12065,15.5,73670.5,1.11,-3.47,-1.83,0,*76
1505520123.94,12066,15.44,73672.0,1.11,-3.31,-1.79,0,*71
1505520125.16,12067,15.44,73684.3,1.11,-3.35,-1.95,0,*76
1505520126.39,12068,15.44,73678.5,1.11,-3.35,-2.07,0,*71
1505520127.61,12069,15.44,73682.8,1.09,-3.39,-2.23,0,*73
1505520128.84,12070,15.44,73682.0,1.09,-3.35,-2.15,0,*72
1505520130.06,12071,15.44,73672.0,1.09,-3.27,-2.15,0,*70
1505520131.28,12072,15.44,73668.8,1.09,-3.15,-2.15,0,*72
1505520132.5,12073,15.44,73672.3,1.09,-3.23,-2.15,0,*76
1505520133.69,12074,15.44,73674.0,1.11,-3.23,-2.19,0,*74
1505520134.89,12075,15.44,73676.5,1.11,-3.31,-2.35,0,*78
1505520136.11,12076,15.44,73680.5,1.09,-3.35,-2.35,0,*76
1505520137.31,12077,15.44,73682.5,1.11,-3.23,-2.23,0,*7E
1505520138.53,12078,15.44,73676.0,1.11,-3.11,-2.07,0,*76
1505520139.76,12079,15.44,73668.0,1.11,-3.19,-2.07,0,*7F
1505520140.98,12080,15.5,73672.0,1.11,-3.19,-2.07,0,*79
1505520142.22,12081,15.44,73672.8,1.09,-3.23,-2.11,0,*7F
1505520143.47,12082,15.44,73658.0,1.09,-3.03,-1.87,0,*72
1505520144.66,12083,15.5,73658.8,1.11,-2.87,-1.79,0,*76
1505520145.87,12084,15.44,73656.8,1.11,-2.95,-1.71,0,*7A
1505520147.07,12085,15.5,73652.3,1.11,-2.95,-1.79,0,*73
1505520148.28,12086,15.44,73652.3,1.11,-2.95,-1.71,0,*78
1505520149.48,12087,15.44,73662.5,1.11,-2.87,-1.67,0,*7D
1505520150.67,12088,15.44,73668.8,1.11,-2.87,-1.59,0,*7F
1505520151.9,12089,15.44,73666.0,1.13,-2.95,-1.67,0,*72
1505520153.13,12090,15.44,73660.0,1.13,-2.95,-1.67,0,*7A
1505520154.37,12091,15.44,73652.3,1.13,-2.95,-1.71,0,*7C
1505520155.57,12092,15.5,73670.8,1.11,-2.99,-1.67,0,*76
1505520156.76,12093,15.44,73668.0,1.11,-2.87,-1.59,0,*75
1505520157.97,12094,15.5,73668.3,1.11,-2.59,-1.33,0,*7D
1505520159.19,12095,15.44,73662.8,1.11,-2.83,-1.47,0,*78
1505520160.4,12096,15.44,73660.0,1.11,-2.95,-1.71,0,*79
1505520161.59,12097,15.44,73658.5,1.11,-2.99,-1.79,0,*7C
1505520162.84,12098,15.44,73664.8,1.09,-3.03,-1.83,0,*7D
1505520164.05,12099,15.44,73666.3,1.09,-2.87,-1.59,0,*76
1505520165.28,12100,15.44,73666.0,1.09,-2.87,-1.71,0,*7D
1505520166.47,12101,15.44,73664.5,1.11,-2.83,-1.59,0,*7B
1505520167.71,12102,15.44,73668.0,1.09,-2.91,-1.83,0,*75
1505520168.96,12103,15.44,73666.5,1.07,-2.95,-1.87,0,*7A
1505520170.21,12104,15.44,73670.3,1.07,-3.03,-1.91,0,*74
1505520171.47,12105,15.5,73672.8,1.07,-2.95,-2.03,0,*73
1505520172.69,12106,15.44,73674.5,1.05,-3.03,-2.03,0,*7C
1505520173.92,12107,15.44,73670.3,1.05,-2.95,-1.99,0,*73
1505520175.17,12108,15.5,73672.5,1.07,-2.95,-1.99,0,*7E
1505520176.37,12109,15.5,73670.5,1.05,-3.07,-2.15,0,*70
1505520177.59,12110,15.44,73666.8,1.07,-3.03,-2.15,0,*7E
1505520178.79,12111,15.44,73666.3,1.05,-3.31,-2.39,0,*72
1505520179.99,12112,15.44,73674.0,1.05,-3.39,-2.39,0,*79
1505520181.19,12113,15.44,73676.5,1.05,-3.39,-2.39,0,*78
1505520182.39,12114,15.44,73678.5,1.05,-3.39,-2.31,0,*77
1505520183.58,12115,15.5,73682.5,1.05,-3.39,-2.27,0,*71
1505520184.78,12116,15.44,73682.3,1.05,-3.39,-2.19,0,*7F
1505520186.03,12117,15.5,73682.0,1.07,-3.31,-2.03,0,*7F
1505520187.26,12118,15.44,73680.8,1.05,-3.31,-2.03,0,*72
1505520188.48,12119,15.44,73678.8,1.05,-3.31,-2.03,0,*73
1505520189.7,12120,15.44,73682.8,1.05,-3.27,-2.03,0,*7E
1505520190.9,12121,15.44,73682.8,1.05,-3.31,-2.15,0,*7F
1505520192.13,12122,15.44,73684.5,1.05,-3.27,-1.91,0,*74
1505520193.38,12123,15.44,73682.8,1.07,-3.39,-2.03,0,*70
1505520194.6,12124,15.5,73686.5,1.05,-3.31,-1.91,0,*75
1505520195.82,12125,15.44,73680.3,1.05,-3.19,-1.91,0,*7E
1505520197.04,12126,15.44,73682.3,1.05,-3.27,-1.87,0,*77
1505520198.26,12127,15.5,73684.8,1.05,-3.19,-1.87,0,*7B
1505520199.46,12128,15.44,73686.0,1.05,-3.03,-1.67,0,*71
1505520200.66,12129,15.44,73684.8,1.05,-2.95,-1.51,0,*7B
1505520201.88,12130,15.44,73690.8,1.05,-2.79,-1.43,0,*72
1505520203.15,12131,15.44,73692.0,1.07,-2.67,-1.39,0,*73
1505520204.37,12132,15.44,73682.5,1.05,-2.55,-1.29,0,*72
1505520205.59,12133,15.44,73678.8,1.05,-2.51,-1.25,0,*7B
1505520206.8,12134,15.5,73670.5,1.05,-2.39,-1.13,0,*77
1505520207.99,12135,15.44,73670.0,1.05,-2.31,-1.17,0,*7A
1505520209.18,12136,15.44,73668.3,1.05,-2.27,-1.17,0,*7E
1505520210.37,12137,15.44,73664.8,1.05,-2.19,-1.17,0,*72
1505520211.56,12138,15.44,73662.0,1.05,-2.15,-1.17,0,*71
1505520212.78,12139,15.5,73660.5,1.05,-2.15,-1.13,0,*74
1505520213.99,12140,15.44,73664.3,1.05,-2.15,-1.05,0,*7D
1505520215.24,12141,15.44,73668.5,1.05,-2.11,-1.05,0,*78
1505520216.46,12142,15.44,73674.5,1.05,-2.11,-1.17,0,*78
1505520217.73,12143,15.44,73678.3,1.07,-2.03,-1.13,0,*7C
1505520218.97,12144,15.44,73680.0,1.05,-2.03,-1.01,0,*7A
1505520220.24,12145,15.44,73676.0,1.07,-1.99,-0.93,0,*43
1505520221.52,12146,15.44,73678.3,1.07,-2.11,-1.05,0,*7D
1505520222.8,12147,15.44,73672.8,1.07,-1.99,-1.01,0,*7B
1505520224.08,12148,15.5,73668.0,1.07,-2.11,-1.05,0,*73
1505520225.35,12149,15.44,73662.8,1.07,-2.03,-1.01,0,*75
1505520226.63,12150,15.44,73666.0,1.07,-2.11,-1.05,0,*7A
1505520227.87,12151,15.44,73668.5,1.07,-2.15,-1.01,0,*7B
1505520229.12,12152,15.44,73674.0,1.05,-2.11,-1.05,0,*7A
1505520230.33,12153,15.44,73676.5,1.05,-2.15,-1.01,0,*7B
1505520231.58,12154,15.44,73680.3,1.07,-2.15,-1.01,0,*7E
1505520232.79,12155,15.44,73680.0,1.05,-2.15,-1.05,0,*79
1505520234.04,12156,15.44,73682.0,1.05,-2.11,-1.01,0,*7A
1505520235.3,12157,15.44,73676.0,1.07,-2.03,-0.93,0,*40
1505520236.57,12158,15.44,73670.3,1.07,-2.11,-0.93,0,*4C
1505520237.78,12159,15.5,73672.3,1.05,-2.15,-0.93,0,*4B
1505520239.03,12160,15.44,73674.3,1.07,-2.19,-1.05,0,*71
1505520240.27,12161,15.44,73674.0,1.07,-2.19,-1.01,0,*74
1505520241.48,12162,15.44,73672.3,1.05,-2.19,-1.01,0,*75
1505520242.7,12163,15.44,73674.8,1.05,-2.19,-1.05,0,*70
1505520243.92,12164,15.5,73680.3,1.05,-2.19,-1.05,0,*77
1505520245.16,12165,15.44,73680.0,1.07,-2.19,-1.01,0,*70
1505520246.4,12166,15.44,73676.8,1.07,-2.19,-1.01,0,*73
1505520247.65,12167,15.5,73676.8,1.07,-2.31,-1.05,0,*7C
1505520248.89,12168,15.44,73674.5,1.07,-2.39,-1.13,0,*7C
1505520250.13,12169,15.44,73672.0,1.09,-2.39,-1.01,0,*70
1505520251.4,12170,15.44,73676.5,1.07,-2.51,-1.05,0,*7C
1505520252.67,12171,15.44,73674.3,1.09,-2.51,-1.09,0,*7F
1505520253.93,12172,15.44,73676.5,1.09,-2.63,-1.13,0,*76
1505520255.17,12173,15.44,73678.5,1.09,-2.87,-1.13,0,*7D
1505520256.39,12174,15.44,73676.8,1.09,-2.99,-1.21,0,*74
1505520257.61,12175,15.44,73676.3,1.09,-3.11,-1.25,0,*70
1505520258.86,12176,15.44,73678.5,1.09,-3.27,-1.35,0,*77
1505520260.07,12177,15.44,73678.3,1.11,-3.43,-1.33,0,*7B
1505520261.35,12178,15.5,73680.0,1.09,-3.51,-1.39,0,*74
1505520262.6,12179,15.44,73676.5,1.09,-3.79,-1.47,0,*76
1505520263.85,12180,15.5,73678.8,1.09,-4.01,-1.51,0,*7F
1505520265.08,12181,15.44,73674.5,1.11,-4.01,-1.55,0,*73
1505520266.29,12182,15.44,73676.3,1.09,-4.17,-1.59,0,*72
1505520267.51,12183,15.44,73674.5,1.09,-4.29,-1.59,0,*7E
1505520268.73,12184,15.44,73674.3,1.09,-4.53,-1.63,0,*7D
1505520269.95,12185,15.5,73674.0,1.09,-4.65,-1.71,0,*7A
1505520271.19,12186,15.5,73678.0,1.09,-4.77,-1.71,0,*7A
1505520272.4,12187,15.44,73674.3,1.11,-4.77,-1.59,0,*78
1505520273.63,12188,15.5,73672.3,1.09,-4.77,-1.63,0,*77
1505520274.85,12189,15.44,73670.0,1.11,-4.73,-1.55,0,*7E
1505520276.08,12190,15.44,73668.3,1.09,-4.77,-1.63,0,*7E
1505520277.32,12191,15.44,73670.8,1.09,-4.77,-1.63,0,*7F
1505520278.53,12192,15.44,73672.3,1.11,-4.73,-1.55,0,*74
1505520279.74,12193,15.44,73674.0,1.11,-4.77,-1.55,0,*71
1505520280.98,12194,15.44,73674.8,1.11,-4.69,-1.47,0,*7A
1505520282.2,12195,15.5,73674.0,1.11,-4.61,-1.47,0,*73
1505520283.44,12196,15.44,73670.5,1.09,-4.49,-1.47,0,*73
1505520284.66,12197,15.44,73674.8,1.09,-4.29,-1.29,0,*7C
1505520285.88,12198,15.44,73668.3,1.09,-4.13,-1.29,0,*7A
1505520287.11,12199,15.44,73674.0,1.09,-3.91,-1.29,0,*76
1505520288.35,12200,15.44,73670.8,1.09,-3.67,-1.25,0,*70
1505520289.57,12201,15.44,73664.5,1.09,-3.39,-1.21,0,*7E
1505520290.79,12202,15.44,73666.5,1.09,-3.23,-1.21,0,*76
1505520291.99,12203,15.44,73664.5,1.11,-2.99,-1.17,0,*7B
1505520293.2,12204,15.44,73660.8,1.09,-2.83,-1.21,0,*7B
1505520294.42,12205,15.5,73666.3,1.11,-2.67,-1.21,0,*79
1505520295.64,12206,15.44,73666.3,1.11,-2.55,-1.25,0,*7F
1505520296.88,12207,15.44,73662.3,1.09,-2.47,-1.25,0,*74
1505520298.07,12208,15.44,73666.0,1.11,-2.23,-1.25,0,*70
1505520299.29,12209,15.44,73662.5,1.11,-2.11,-1.33,0,*77
1505520300.57,12210,15.5,73664.3,1.09,-2.11,-1.39,0,*7C
1505520301.82,12211,15.44,73660.3,1.11,-2.03,-1.43,0,*7A
1505520303.04,12212,15.44,73676.5,1.11,-2.03,-1.55,0,*7E
1505520304.26,12213,15.44,73674.5,1.11,-2.07,-1.79,0,*75
1505520305.51,12214,15.44,73676.3,1.11,-1.83,-1.47,0,*70
1505520306.71,12215,15.44,73672.5,1.11,-1.71,-1.55,0,*7F
1505520307.9,12216,15.44,73672.8,1.11,-1.79,-1.55,0,*74
1505520309.1,12217,15.5,73674.0,1.11,-1.71,-1.55,0,*7D
1505520310.31,12218,15.44,73672.8,1.13,-1.79,-1.59,0,*74
1505520311.54,12219,15.44,73664.8,1.13,-1.79,-1.71,0,*7F
1505520312.79,12220,15.44,73664.3,1.13,-1.83,-1.79,0,*78
1505520314.04,12221,15.5,73668.8,1.13,-1.91,-1.79,0,*7A
1505520315.28,12222,15.44,73670.0,1.13,-1.95,-1.79,0,*7D
1505520316.55,12223,15.44,73668.3,1.13,-2.03,-1.83,0,*75
1505520317.83,12224,15.44,73662.8,1.13,-2.03,-1.83,0,*72
1505520319.06,12225,15.44,73670.5,1.15,-2.07,-1.79,0,*74
1505520320.33,12226,15.44,73672.0,1.13,-2.11,-1.83,0,*73
1505520321.56,12227,15.44,73672.0,1.15,-2.19,-1.87,0,*78
1505520322.8,12228,15.44,73674.5,1.13,-2.31,-1.95,0,*78
1505520324.05,12229,15.44,73678.0,1.13,-2.43,-2.07,0,*74
1505520325.24,12230,15.44,73676.8,1.15,-2.39,-2.15,0,*74
1505520326.52,12231,15.44,73672.5,1.13,-2.47,-2.11,0,*7E
1505520327.76,12232,15.44,73678.8,1.13,-2.55,-2.19,0,*76
1505520328.99,12233,15.44,73678.8,1.15,-2.55,-2.15,0,*7D
1505520330.2,12234,15.44,73676.0,1.15,-2.59,-2.27,0,*77
1505520331.43,12235,15.44,73678.8,1.15,-2.67,-2.19,0,*76
1505520332.65,12236,15.5,73682.8,1.15,-2.75,-2.31,0,*7C
1505520333.9,12237,15.44,73678.8,1.13,-2.87,-2.47,0,*77
1505520335.15,12238,15.44,73680.8,1.13,-3.07,-2.55,0,*72
1505520336.38,12239,15.44,73682.3,1.15,-3.15,-2.63,0,*73
1505520337.64,12240,15.44,73676.8,1.13,-3.31,-2.71,0,*7E
1505520338.86,12241,15.44,73680.3,1.13,-3.31,-2.83,0,*72
1505520340.09,12242,15.44,73680.3,1.15,-3.51,-2.95,0,*76
1505520341.32,12243,15.44,73684.5,1.15,-3.59,-3.07,0,*75
1505520342.54,12244,15.44,73684.3,1.13,-3.75,-3.23,0,*7C
1505520343.76,12245,15.44,73684.0,1.13,-3.87,-3.23,0,*70
1505520345.01,12246,15.44,73686.8,1.13,-4.01,-3.31,0,*79
1505520346.28,12247,15.44,73684.8,1.13,-4.01,-3.43,0,*7D
1505520347.53,12248,15.44,73684.3,1.13,-4.21,-3.59,0,*7B
1505520348.77,12249,15.44,73684.3,1.13,-4.33,-3.71,0,*73
1505520349.99,12250,15.44,73686.0,1.13,-4.37,-3.83,0,*72
1505520351.2,12251,15.44,73688.3,1.13,-4.53,-3.87,0,*75
1505520352.44,12252,15.44,73688.3,1.13,-4.73,-4.09,0,*75
1505520353.69,12253,15.44,73688.0,1.13,-4.89,-4.21,0,*7B
1505520354.91,12254,15.5,73692.0,1.11,-5.11,-4.33,0,*7D
1505520356.13,12255,15.44,73690.5,1.11,-5.23,-4.33,0,*7D
1505520357.33,12256,15.44,73688.8,1.11,-5.39,-4.49,0,*78
1505520358.53,12257,15.44,73688.8,1.11,-5.51,-4.53,0,*7C
1505520359.75,12258,15.44,73694.0,1.11,-5.65,-4.65,0,*71
1505520361.0,12259,15.44,73694.0,1.11,-5.77,-4.77,0,*70
1505520362.25,12260,15.44,73698.0,1.11,-5.93,-4.85,0,*7D
1505520363.47,12261,15.5,73696.5,1.11,-6.05,-4.89,0,*7C
1505520364.72,12262,15.44,73698.0,1.13,-6.19,-4.99,0,*71
1505520365.97,12263,15.5,73698.8,1.13,-6.31,-5.03,0,*78
1505520367.2,12264,15.44,73692.5,1.11,-6.35,-5.15,0,*7E
1505520368.43,12265,15.5,73694.5,1.11,-6.55,-5.23,0,*7C
1505520369.66,12266,15.44,73694.0,1.11,-6.81,-5.31,0,*75
1505520370.88,12267,15.44,73684.3,1.11,-6.93,-5.43,0,*72
1505520372.13,12268,15.44,73688.0,1.11,-7.01,-5.69,0,*7F
1505520373.37,12269,15.44,73688.0,1.11,-7.27,-5.69,0,*7A
1505520374.6,12270,15.44,73680.3,1.11,-7.53,-5.89,0,*7F
1505520375.82,12271,15.44,73682.8,1.11,-7.83,-5.93,0,*78
1505520377.03,12272,15.44,73680.8,1.11,-7.95,-6.05,0,*70
1505520378.23,12273,15.44,73680.3,1.11,-8.29,-6.13,0,*7E
1505520379.45,12274,15.44,73676.0,1.11,-8.41,-6.19,0,*7D
1505520380.67,12275,15.44,73682.0,1.11,-8.67,-6.19,0,*78
1505520381.9,12276,15.44,73682.0,1.13,-8.89,-6.13,0,*73
1505520383.15,12277,15.44,73680.0,1.13,-9.15,-6.13,0,*76
1505520384.44,12278,15.44,73682.0,1.13,-9.15,-5.89,0,*79
1505520385.68,12279,15.44,73694.0,1.13,-9.27,-5.77,0,*78
1505520386.93,12280,15.44,73692.5,1.13,-9.37,-5.43,0,*78
1505520388.18,12281,15.44,73688.5,1.13,-9.23,-5.31,0,*79
1505520389.42,12282,15.44,73680.0,1.15,-9.05,-4.81,0,*72
1505520390.67,12283,15.44,73682.0,1.13,-9.15,-4.65,0,*7E
1505520391.87,12284,15.44,73682.5,1.15,-9.31,-4.49,0,*77
1505520393.1,12285,15.44,73674.8,1.15,-9.45,-4.57,0,*7A
1505520394.35,12286,15.44,73674.3,1.17,-9.45,-4.49,0,*74
1505520395.57,12287,15.44,73644.0,1.17,-9.31,-4.21,0,*78
1505520396.81,12288,15.5,73636.5,1.17,-9.45,-4.17,0,*71
1505520398.03,12289,15.44,73626.0,1.21,-9.31,-3.91,0,*7F
1505520399.3,12290,15.44,73632.0,1.21,-9.41,-4.01,0,*7E
1505520400.53,12291,15.44,73640.5,1.23,-9.45,-3.71,0,*79
1505520401.78,12292,15.44,73634.0,1.25,-9.57,-3.71,0,*7F
1505520402.98,12293,15.44,73626.3,1.23,-9.79,-3.75,0,*70
1505520404.21,12294,15.5,73628.8,1.25,-9.67,-3.59,0,*70
1505520405.43,12295,15.44,73650.3,1.23,-9.79,-3.63,0,*71
1505520406.67,12296,15.44,73646.5,1.25,-9.71,-3.43,0,*7E
1505520407.9,12297,15.44,73658.0,1.23,-9.57,-3.43,0,*7D
1505520409.15,12298,15.44,73674.0,1.25,-9.83,-3.63,0,*7F
1505520410.37,12299,15.44,73670.8,1.23,-9.11,-2.87,0,*78
1505520411.62,12300,15.44,73672.8,1.25,-8.71,-2.55,0,*77
1505520412.84,12301,15.44,73676.3,1.25,-8.45,-2.23,0,*70
1505520414.08,12302,15.44,73660.5,1.25,-8.33,-2.11,0,*73
1505520415.29,12303,15.44,73656.3,1.25,-8.45,-2.43,0,*74
1505520416.54,12304,15.44,73672.5,1.25,-8.71,-2.59,0,*7F
1505520417.78,12305,15.44,73674.0,1.25,-8.41,-2.47,0,*72
1505520418.98,12306,15.44,73676.0,1.27,-8.17,-2.39,0,*79
1505520420.23,12307,15.44,73678.3,1.29,-8.37,-2.51,0,*7A
1505520421.44,12308,15.44,73674.5,1.27,-8.29,-2.55,0,*70
1505520422.66,12309,15.44,73674.3,1.27,-8.29,-2.63,0,*74
1505520423.86,12310,15.44,73668.8,1.27,-8.41,-2.83,0,*7C
1505520425.07,12311,15.44,73664.3,1.27,-8.51,-3.07,0,*71
1505520426.27,12312,15.44,73666.3,1.27,-8.41,-3.07,0,*73
1505520427.48,12313,15.5,73672.5,1.27,-8.59,-3.43,0,*7B
1505520428.71,12314,15.44,73676.0,1.27,-8.81,-3.71,0,*78
1505520429.92,12315,15.44,73670.0,1.27,-8.67,-3.59,0,*7B
1505520431.14,12316,15.44,73678.3,1.27,-8.55,-3.67,0,*74
1505520432.34,12317,15.44,73668.8,1.27,-8.59,-3.67,0,*79
1505520433.54,12318,15.44,73656.3,1.27,-8.71,-3.83,0,*76
1505520434.76,12319,15.44,73660.5,1.27,-8.81,-3.91,0,*7B
1505520435.96,12320,15.5,73664.3,1.27,-8.93,-3.91,0,*72
1505520437.17,12321,15.44,73656.5,1.25,-8.97,-4.13,0,*78
1505520438.39,12322,15.5,73662.5,1.25,-8.97,-4.13,0,*7B
1505520439.58,12323,15.44,73660.8,1.27,-8.97,-4.17,0,*7C
1505520440.81,12324,15.44,73660.3,1.29,-8.93,-4.21,0,*74
1505520442.03,12325,15.44,73656.8,1.25,-8.89,-4.33,0,*71
1505520443.24,12326,15.44,73662.3,1.25,-8.97,-4.37,0,*79
1505520444.47,12327,15.44,73664.5,1.25,-9.01,-4.53,0,*74
1505520445.72,12328,15.44,73666.3,1.25,-9.11,-4.49,0,*71
1505520446.94,12329,15.5,73668.8,1.25,-9.01,-4.53,0,*7A
1505520448.16,12330,15.44,73670.8,1.25,-8.85,-4.49,0,*74
1505520449.36,12331,15.44,73668.5,1.23,-8.71,-4.49,0,*78
1505520450.59,12332,15.44,73668.3,1.25,-8.71,-4.49,0,*7D
1505520451.78,12333,15.44,73670.5,1.23,-8.59,-4.53,0,*7B
1505520453.0,12334,15.44,73670.8,1.25,-8.45,-4.53,0,*77
1505520454.2,12335,15.44,73672.8,1.23,-8.29,-4.65,0,*7F
1505520455.42,12336,15.44,73668.3,1.25,-8.21,-4.65,0,*72
1505520456.66,12337,15.44,73670.5,1.25,-8.29,-5.03,0,*7A
1505520457.93,12338,15.44,73670.3,1.25,-8.07,-5.11,0,*7A
1505520459.18,12339,15.44,73668.0,1.25,-7.83,-5.11,0,*78
1505520460.42,12340,15.44,73668.8,1.23,-7.69,-5.31,0,*76
1505520461.62,12341,15.44,73672.0,1.23,-7.49,-5.43,0,*70
1505520462.82,12342,15.44,73676.3,1.23,-7.53,-5.55,0,*7F
1505520464.06,12343,15.5,73672.3,1.23,-7.39,-5.69,0,*7D
1505520465.3,12344,15.44,73674.8,1.23,-7.27,-5.81,0,*73
1505520466.52,12345,15.44,73668.0,1.23,-7.15,-5.93,0,*70
1505520467.72,12346,15.5,73674.5,1.23,-7.15,-6.09,0,*73
1505520468.96,12347,15.44,73674.0,1.21,-7.15,-6.27,0,*7C
1505520470.19,12348,15.44,73674.5,1.17,-7.11,-6.31,0,*75
1505520471.42,12349,15.5,73680.0,1.21,-7.05,-6.39,0,*7C
1505520472.67,12350,15.44,73676.3,1.21,-7.19,-6.63,0,*76
1505520473.87,12351,15.44,73674.8,1.23,-7.23,-6.81,0,*70
1505520475.13,12352,15.44,73672.8,1.21,-7.31,-6.93,0,*71
1505520476.4,12353,15.44,73672.8,1.21,-7.57,-7.05,0,*7E
1505520477.65,12354,15.44,73674.0,1.21,-7.69,-7.05,0,*74
1505520478.87,12355,15.44,73668.8,1.21,-7.83,-7.15,0,*70
1505520480.11,12356,15.44,73668.3,1.21,-7.95,-7.19,0,*78
1505520481.36,12357,15.44,73666.5,1.21,-8.07,-7.19,0,*7D
1505520482.59,12358,15.44,73668.3,1.17,-8.17,-7.05,0,*7B
1505520483.83,12359,15.44,73666.3,1.21,-8.21,-6.93,0,*74
1505520485.08,12360,15.5,73670.3,1.17,-8.37,-6.97,0,*78
1505520486.3,12361,15.44,73666.0,1.21,-8.37,-6.85,0,*7F
1505520487.51,12362,15.44,73668.3,1.21,-8.25,-6.85,0,*7F
1505520488.75,12363,15.44,73670.5,1.21,-8.25,-6.63,0,*76
1505520490.0,12364,15.44,73666.0,1.21,-8.11,-6.47,0,*70
1505520491.25,12365,15.44,73670.5,1.17,-8.11,-6.43,0,*70
1505520492.51,12366,15.44,73670.8,1.21,-7.99,-6.23,0,*7F
1505520493.72,12367,15.44,73672.5,1.21,-7.87,-6.05,0,*75
1505520494.96,12368,15.44,73672.0,1.17,-7.87,-5.89,0,*78
1505520496.23,12369,15.44,73672.8,1.21,-7.65,-5.81,0,*78
1505520497.47,12370,15.44,73674.3,1.21,-7.53,-5.69,0,*73
1505520498.74,12371,15.44,73676.0,1.21,-7.39,-5.61,0,*76
1505520500.01,12372,15.44,73678.0,1.17,-7.35,-5.61,0,*7C
1505520501.23,12373,15.44,73674.5,1.21,-7.15,-5.43,0,*7A
1505520502.47,12374,15.5,73680.0,1.17,-7.05,-5.51,0,*7A
1505520503.69,12375,15.44,73672.3,1.21,-6.89,-5.47,0,*7C
1505520504.9,12376,15.44,73676.8,1.21,-6.89,-5.47,0,*7F
1505520506.15,12377,15.44,73678.5,1.17,-6.89,-5.61,0,*7F
1505520507.4,12378,15.44,73680.0,1.17,-6.81,-5.65,0,*7C
1505520508.64,12379,15.44,73676.8,1.21,-6.85,-5.81,0,*76
1505520509.86,12380,15.44,73680.8,1.17,-6.89,-5.97,0,*7E
1505520511.1,12381,15.44,73680.0,1.17,-6.93,-6.01,0,*78
1505520512.31,12382,15.44,73678.5,1.21,-6.89,-6.05,0,*71
1505520513.58,12383,15.44,73678.3,1.17,-6.97,-6.19,0,*77
1505520514.85,12384,15.44,73680.3,1.17,-7.05,-6.19,0,*7A
1505520516.1,12385,15.44,73680.5,1.17,-7.19,-6.27,0,*7B
1505520517.35,12386,15.44,73682.0,1.17,-7.35,-6.31,0,*71
1505520518.6,12387,15.44,73678.5,1.17,-7.61,-6.31,0,*71
1505520519.85,12388,15.44,73678.3,1.17,-7.73,-6.31,0,*7D